Regional Weather Roundup
Issued by NWS

Home | Current Version | Previous Version | Text Only | Print | Product List | Glossary Off
Versions: 1 2 3 4 5 6 7 8 9 10 11 12 13 14 15 16 17 18 19 20 21 22 23 24 25 26 27 28 29 30 31 32 33 34 35 36 37 38 39 40 41 42 43 44 45 46 47 48 49 50

000
ASUS43 KFSD 212002
RWRSD

WEATHER ROUNDUP FOR SOUTH DAKOTA
NATIONAL WEATHER SERVICE SIOUX FALLS SD
200 PM CST TUE FEB 21 2017

NOTE: "FAIR" INDICATES FEW OR NO CLOUDS BELOW 12,000 FEET WITH NO
SIGNIFICANT WEATHER AND/OR OBSTRUCTIONS TO VISIBILITY.


SDZ001>005-009-010-012>017-212100-
NORTHWEST AND NORTH CENTRAL SOUTH DAKOTA

CITY           SKY/WX    TMP DP  RH WIND       PRES   REMARKS
BUFFALO          N/A     66  30  26 SW13G20   29.60F
FAITH            N/A     65  35  33 SW15      29.68F
MOBRIDGE       SUNNY     59  36  42 SE3       29.66F
$$

SDZ012>016-024>037-041>051-057-063-072>074-212100-
SOUTHWEST AND SOUTH CENTRAL SOUTH DAKOTA

CITY           SKY/WX    TMP DP  RH WIND       PRES   REMARKS
RAPID CTY ARPT SUNNY     71  29  21 SW25G37   29.70F
PIERRE         SUNNY     68  33  27 N3        29.69F
CUSTER         PTSUNNY   55  28  35 W15G37    29.83F
ELLSWORTH AFB  SUNNY     70  30  22 SW29G37   29.69F
PHILIP         SUNNY     74  33  22 W22G33    29.68F
PINE RIDGE     SUNNY     71  30  21 W25G46    29.76F
SPEARFISH      FAIR      64  32  29 W22G30    29.72F
WINNER         FAIR      75  35  23 W22G29    29.71F
$$

SDZ004>011-016>023-039-040-212100-
NORTHEAST SOUTH DAKOTA

CITY           SKY/WX    TMP DP  RH WIND       PRES   REMARKS
ABERDEEN       MOSUNNY   59  36  42 SW6       29.70S
WATERTOWN      MOSUNNY   56  42  59 SW8       29.71F
BROOKINGS      SUNNY     57  39  51 SW10      29.72F
SISSETON         N/A     56  42  59 W12       29.66F
$$

SDZ017-020-022-023-036>040-048>070-212100-
SOUTHEAST SOUTH DAKOTA

CITY           SKY/WX    TMP DP  RH WIND       PRES   REMARKS
SIOUX FALLS    MOSUNNY   65  38  36 SW10G22   29.73F
HURON          SUNNY     67  37  33 NW7       29.70F
CHAMBERLAIN    SUNNY     69  38  31 CALM      29.71F
MITCHELL       SUNNY     67  36  31 W7        29.72F
YANKTON        SUNNY     72  34  25 S15G21    29.72F
$$

ABBREVIATIONS USED IN REMARKS
   TC - TEMPERATURE IN CELSIUS
  WCI - WIND CHILL INDEX
   HX - HEAT INDEX
  VSB - VISIBILITY





USA.gov is the U.S. government's official web portal to all federal, state and local government web resources and services.